Weather History for Glendive, MT

Change the Weather History Date:

Monday, February 11, 2013

  Actual Average Record
Temperature  
Mean Temperature 24 °F -  
Max Temperature 35 °F 30 °F 60 °F (2005)
Min Temperature 12 °F 12 °F -14 °F (2012)
Degree Days  
Heating Degree Days 42    
Moisture  
Dew Point 15 °F    
Average Humidity 71    
Maximum Humidity 86    
Minimum Humidity 48    
Precipitation  
Precipitation 0.00 in - - ()
Sea Level Pressure  
Sea Level Pressure 29.96 in    
Wind  
Wind Speed 11 mph (WSW)    
Max Wind Speed 16 mph    
Max Gust Speed 21 mph    
Visibility 10 miles    
Events      
Averages and records for this station are not official NWS values.
T = Trace of Precipitation, MM = Missing Value Source: NWS Daily Summary

Daily Weather History Graph

Daily Weather History Graph

Search for Another Location

Airport:

Trip Planner

Search our weather history database for the weather conditions in past years. The results will help you decide how hot, cold, wet, or windy it might be!

Date:

Astronomy

Feb. 11, 2013 Rise Set
Actual Time 7:09 AM MST 5:17 PM MST
Civil Twilight 6:38 AM MST 5:49 PM MST
Nautical Twilight 6:02 AM MST 6:25 PM MST
Astronomical Twilight 5:26 AM MST 7:00 PM MST
Moon 7:26 AM MST (2/11) 7:29 PM MST (2/11)
Length of Visible Light 11h 11m
Length of Day
10h 07m
Waxing Crescent, 3% of the Moon is Illuminated
Feb 11
Waxing Crescent
Feb 17
First Quarter
Feb 25
Full
Mar 4
Last Quarter
Mar 11
New

Hourly Weather History & Observations

Time (MST) Temp. Windchill Dew Point Humidity Pressure Visibility Wind Dir Wind Speed Gust Speed Precip Events Conditions
12:15 AM 17.6 °F 5.0 °F 12.2 °F 79% 30.08 in 10.0 mi NW 11.5 mph 16.1 mph N/A   Overcast
12:35 AM 17.6 °F 5.7 °F 12.2 °F 79% 30.08 in 10.0 mi NW 10.4 mph - N/A   Overcast
12:55 AM 17.6 °F 2.7 °F 12.2 °F 79% 30.08 in 10.0 mi NNW 16.1 mph - N/A   Overcast
1:15 AM 17.6 °F 4.3 °F 12.2 °F 79% 30.07 in 10.0 mi NW 12.7 mph - N/A   Overcast
1:35 AM 17.6 °F 6.4 °F 12.2 °F 79% 30.07 in 10.0 mi NW 9.2 mph - N/A   Overcast
1:55 AM 17.6 °F 4.3 °F 12.2 °F 79% 30.07 in 10.0 mi WNW 12.7 mph - N/A   Overcast
2:15 AM 17.6 °F 4.3 °F 12.2 °F 79% 30.07 in 10.0 mi WNW 12.7 mph - N/A   Overcast
2:35 AM 17.6 °F 3.7 °F 12.2 °F 79% 30.06 in 10.0 mi WNW 13.8 mph - N/A   Overcast
2:55 AM 17.6 °F 5.0 °F 12.2 °F 79% 30.06 in 10.0 mi NW 11.5 mph 16.1 mph N/A   Overcast
3:15 AM 17.6 °F 5.7 °F 12.2 °F 79% 30.05 in 10.0 mi WNW 10.4 mph - N/A   Overcast
3:35 AM 17.6 °F 5.0 °F 12.2 °F 79% 30.05 in 10.0 mi WNW 11.5 mph - N/A   Overcast
3:55 AM 17.6 °F 4.3 °F 12.2 °F 79% 30.05 in 10.0 mi WNW 12.7 mph - N/A   Overcast
4:15 AM 17.6 °F 7.3 °F 12.2 °F 79% 30.05 in 10.0 mi WNW 8.1 mph - N/A   Overcast
4:35 AM 15.8 °F 3.4 °F 12.2 °F 86% 30.05 in 10.0 mi WNW 10.4 mph - N/A   Mostly Cloudy
4:55 AM 17.6 °F 8.2 °F 12.2 °F 79% 30.05 in 10.0 mi WNW 6.9 mph - N/A   Overcast
5:15 AM 17.6 °F 8.2 °F 12.2 °F 79% 30.05 in 10.0 mi West 6.9 mph - N/A   Overcast
5:35 AM 17.6 °F 7.3 °F 12.2 °F 79% 30.04 in 10.0 mi WSW 8.1 mph - N/A   Overcast
5:55 AM 15.8 °F 6.1 °F 10.4 °F 79% 30.04 in 10.0 mi WSW 6.9 mph - N/A   Overcast
6:15 AM 14.0 °F 5.1 °F 8.6 °F 79% 30.05 in 10.0 mi SW 5.8 mph - N/A   Mostly Cloudy
6:35 AM 14.0 °F 6.5 °F 8.6 °F 79% 30.04 in 10.0 mi SW 4.6 mph - N/A   Mostly Cloudy
7:15 AM 12.2 °F 1.7 °F 8.6 °F 85% 30.03 in 10.0 mi SSW 6.9 mph - N/A   Mostly Cloudy
7:35 AM 12.2 °F 1.7 °F 8.6 °F 85% 30.03 in 10.0 mi SW 6.9 mph - N/A   Partly Cloudy
7:55 AM 14.0 °F 3.9 °F 8.6 °F 79% 30.03 in 10.0 mi SW 6.9 mph - N/A   Clear
8:15 AM 15.8 °F 3.4 °F 10.4 °F 79% 30.03 in 10.0 mi SW 10.4 mph - N/A   Clear
8:35 AM 17.6 °F 5.7 °F 12.2 °F 79% 30.02 in 10.0 mi WSW 10.4 mph - N/A   Clear
8:55 AM 17.6 °F 5.7 °F 12.2 °F 79% 30.02 in 10.0 mi SW 10.4 mph - N/A   Clear
9:15 AM 19.4 °F 7.2 °F 14.0 °F 80% 30.01 in 10.0 mi SW 11.5 mph - N/A   Clear
9:35 AM 21.2 °F 9.5 °F 15.8 °F 80% 30.01 in 10.0 mi SW 11.5 mph - N/A   Clear
9:55 AM 23.0 °F 11.7 °F 14.0 °F 68% 30.00 in 10.0 mi SSW 11.5 mph - N/A   Clear
10:15 AM 24.8 °F 14.6 °F 15.8 °F 69% 30.00 in 10.0 mi SW 10.4 mph - N/A   Clear
10:35 AM 26.6 °F 15.7 °F 15.8 °F 64% 29.99 in 10.0 mi SSW 12.7 mph - N/A   Clear
10:55 AM 26.6 °F 15.7 °F 15.8 °F 64% 29.99 in 10.0 mi SW 12.7 mph - N/A   Clear
11:15 AM 28.4 °F 17.0 °F 15.8 °F 59% 29.98 in 10.0 mi SW 15.0 mph - N/A   Clear
11:35 AM 28.4 °F 17.5 °F 17.6 °F 64% 29.97 in 10.0 mi SW 13.8 mph 20.7 mph N/A   Clear
11:55 AM 30.2 °F 19.8 °F 17.6 °F 60% 29.96 in 10.0 mi SW 13.8 mph - N/A   Clear
12:15 PM 30.2 °F 19.3 °F 19.4 °F 64% 29.95 in 10.0 mi SSW 15.0 mph 18.4 mph N/A   Clear
12:35 PM 32.0 °F 21.6 °F 17.6 °F 55% 29.94 in 10.0 mi WSW 15.0 mph - N/A   Clear
1:35 PM 33.8 °F 23.9 °F 17.6 °F 52% 29.91 in 10.0 mi SW 15.0 mph - N/A   Clear
1:55 PM 33.8 °F 24.3 °F 17.6 °F 52% 29.90 in 10.0 mi WSW 13.8 mph - N/A   Clear
2:15 PM 35.6 °F 26.6 °F 17.6 °F 48% 29.89 in 10.0 mi SW 13.8 mph - N/A   Clear
2:35 PM 35.6 °F 27.1 °F 17.6 °F 48% 29.89 in 10.0 mi WSW 12.7 mph 19.6 mph N/A   Clear
2:55 PM 35.6 °F 25.9 °F 19.4 °F 52% 29.89 in 10.0 mi WSW 16.1 mph - N/A   Clear
3:55 PM 33.8 °F 24.3 °F 19.4 °F 56% 29.88 in 10.0 mi WSW 13.8 mph - N/A   Clear
4:15 PM 33.8 °F 24.3 °F 19.4 °F 56% 29.88 in 10.0 mi WSW 13.8 mph - N/A   Clear
4:35 PM 32.0 °F 22.1 °F 19.4 °F 60% 29.87 in 10.0 mi WSW 13.8 mph - N/A   Clear
4:55 PM 32.0 °F 23.0 °F 19.4 °F 60% 29.87 in 10.0 mi SW 11.5 mph - N/A   Partly Cloudy
5:15 PM 30.2 °F 21.3 °F 19.4 °F 64% 29.86 in 10.0 mi SW 10.4 mph - N/A   Clear
5:35 PM 28.4 °F 20.4 °F 19.4 °F 69% 29.87 in 10.0 mi SW 8.1 mph - N/A   Clear
5:55 PM 28.4 °F 20.4 °F 19.4 °F 69% 29.87 in 10.0 mi SW 8.1 mph - N/A   Scattered Clouds
6:15 PM 28.4 °F 20.4 °F 19.4 °F 69% 29.87 in 10.0 mi SW 8.1 mph - N/A   Partly Cloudy
6:35 PM 28.4 °F 20.4 °F 19.4 °F 69% 29.87 in 10.0 mi SW 8.1 mph - N/A   Clear
6:55 PM 28.4 °F 18.5 °F 19.4 °F 69% 29.86 in 10.0 mi WSW 11.5 mph - N/A   Clear
7:15 PM 26.6 °F 17.5 °F 19.4 °F 74% 29.86 in 10.0 mi WSW 9.2 mph - N/A   Clear
7:35 PM 26.6 °F 16.8 °F 19.4 °F 74% 29.86 in 10.0 mi WSW 10.4 mph - N/A   Partly Cloudy
7:55 PM 26.6 °F 17.5 °F 17.6 °F 69% 29.86 in 10.0 mi WSW 9.2 mph - N/A   Scattered Clouds
8:15 PM 26.6 °F 16.8 °F 19.4 °F 74% 29.86 in 10.0 mi SW 10.4 mph - N/A   Mostly Cloudy
8:35 PM 24.8 °F 16.9 °F 17.6 °F 74% 29.87 in 10.0 mi SW 6.9 mph - N/A   Mostly Cloudy
8:55 PM 24.8 °F 15.3 °F 15.8 °F 69% 29.87 in 10.0 mi West 9.2 mph - N/A   Clear
9:15 PM 24.8 °F 14.6 °F 15.8 °F 69% 29.87 in 10.0 mi WSW 10.4 mph - N/A   Clear
9:35 PM 24.8 °F 17.9 °F 17.6 °F 74% 29.88 in 10.0 mi West 5.8 mph - N/A   Clear
9:55 PM 24.8 °F 17.9 °F 15.8 °F 69% 29.87 in 10.0 mi West 5.8 mph - N/A   Clear
10:15 PM 23.0 °F 13.1 °F 15.8 °F 74% 29.87 in 10.0 mi West 9.2 mph - N/A   Clear
10:35 PM 23.0 °F 13.9 °F 17.6 °F 80% 29.87 in 10.0 mi WSW 8.1 mph - N/A   Clear
10:55 PM 24.8 °F 16.9 °F 17.6 °F 74% 29.87 in 10.0 mi West 6.9 mph - N/A   Clear
11:15 PM 26.6 °F 17.5 °F 17.6 °F 69% 29.87 in 10.0 mi West 9.2 mph - N/A   Clear
11:35 PM 26.6 °F 16.8 °F 17.6 °F 69% 29.87 in 10.0 mi West 10.4 mph - N/A   Clear
11:55 PM 26.6 °F 17.5 °F 19.4 °F 74% 29.87 in 10.0 mi WNW 9.2 mph - N/A   Clear